Temperature
19 19 19 19 19 20 20 19 19 19 19 19 19 19 19 19 19 19 19 18 18 18 18 18 18 18 18 18 18 18 18 17 17 17 17 17 17 17 17 17 17 16 16
20 20 19 19 19 20 20 20 19 19 19 19 19 19 19 19 19 19 19 18 18 18 18 18 18 18 18 18 17 17 17 17 17 17 17 17 17 17 17 17 17 16 16
20 20 20 19 19 19 20 20 19 19 19 19 19 19 19 19 19 19 18 18 18 18 18 18 18 18 18 18 18 17 17 17 17 17 17 17 17 17 17 17 17 16 16
21 20 20 20 19 19 19 19 19 19 19 19 19 19 19 19 19 19 18 18 18 18 18 18 18 18 18 17 17 17 17 17 17 17 17 17 17 17 17 17 16 16 17
21 20 20 20 19 19 19 19 19 19 19 19 19 19 19 19 19 18 18 18 18 18 18 18 18 17 17 17 17 17 17 17 17 17 17 17 17 17 17 17 17 16 16
21 20 20 20 20 19 19 19 19 19 19 19 19 18 18 19 18 18 18 18 18 18 18 17 17 17 17 17 17 17 17 17 17 17 17 17 17 17 17 17 17 17 16
21 20 20 20 20 19 19 19 19 19 19 19 19 18 18 18 18 18 18 18 18 18 17 17 17 17 17 17 17 17 17 17 17 17 17 17 17 17 17 17 16 16 16
21 20 20 20 19 19 19 19 19 19 19 18 18 18 18 18 18 18 18 18 18 18 17 17 17 17 17 17 17 17 17 17 17 17 17 17 17 17 17 17 17 16 16
21 20 20 20 19 19 19 19 19 19 18 18 18 18 18 18 18 18 18 18 18 17 17 17 17 17 17 17 17 17 17 17 17 17 17 17 17 17 17 17 16 16 16
20 20 20 19 19 19 19 19 19 18 18 18 18 18 18 18 18 18 18 18 18 17 17 17 17 17 17 17 17 17 17 17 17 17 17 17 17 17 17 17 16 16 16
20 20 20 19 19 19 19 18 18 18 18 18 18 18 18 18 18 18 18 18 17 17 17 17 17 17 17 17 17 17 17 17 17 17 17 17 17 17 17 17 16 16 16
19 19 19 19 19 19 18 18 18 18 18 18 18 18 18 18 18 18 18 17 17 17 17 17 17 17 17 17 17 17 17 17 17 17 17 17 17 17 17 17 16 16 16
20 19 19 19 19 19 18 18 18 18 18 18 18 18 18 18 18 18 18 17 17 17 17 17 17 17 17 17 17 17 17 17 17 17 17 17 17 17 16 16 16 16 16
19 19 19 19 19 19 18 18 18 18 18 18 18 18 18 18 18 18 18 17 17 17 17 17 17 17 17 17 17 17 17 17 17 17 17 17 16 16 16 16 16 16 16
20 19 19 19 19 18 18 18 18 18 18 18 18 18 18 18 18 17 17 17 17 17 17 17 17 17 17 17 17 17 17 17 17 17 17 17 16 16 16 16 16 16 16
20 19 19 19 19 19 18 18 18 18 18 18 18 18 17 17 17 17 17 17 17 17 17 17 17 17 17 17 17 17 17 17 17 17 17 16 16 16 16 16 16 16 16
19 19 19 19 19 18 18 18 18 18 18 18 18 17 17 17 17 17 17 17 17 17 17 17 17 17 17 17 17 17 17 17 17 17 16 16 16 16 16 16 16 16 16
19 19 19 19 18 18 18 18 18 18 18 18 17 17 17 17 17 17 17 17 17 17 17 17 17 16 16 17 17 17 16 16 16 16 16 16 16 16 16 16 16 16 16
19 19 19 18 18 18 18 18 18 17 17 17 17 17 17 17 17 17 17 17 17 17 17 17 16 16 16 16 16 16 16 16 16 16 16 16 16 16 16 16 16 16 16
19 19 19 18 18 18 18 17 17 17 17 17 17 17 17 17 17 17 17 17 17 17 17 16 16 16 16 16 16 16 16 16 16 16 16 16 16 16 16 16 16 16 15
19 19 19 18 18 18 17 17 17 17 17 17 17 17 17 17 17 17 17 17 17 16 16 16 16 16 16 16 16 16 16 16 16 16 16 16 16 16 16 16 15 15 15
19 19 18 18 18 17 17 17 17 17 17 17 17 17 17 17 17 17 17 17 17 16 16 16 16 16 16 16 16 16 16 16 16 16 16 16 16 16 16 16 15 15 15
19 19 18 18 18 17 17 17 17 17 17 17 17 17 17 17 17 17 17 17 16 16 16 16 16 16 16 16 16 16 16 16 16 16 16 16 16 16 16 16 16 16 15
19 19 18 18 18 17 17 17 17 17 17 17 17 17 17 17 16 16 16 16 16 16 16 16 16 16 16 16 16 16 16 16 16 16 16 16 16 16 16 16 16 16 15
19 18 18 17 17 17 17 17 17 17 17 17 17 17 17 17 16 16 16 16 16 16 16 16 16 16 16 16 16 16 16 16 16 16 16 16 16 16 16 16 16 16 16
18 18 18 17 17 17 17 17 17 17 17 17 17 17 17 17 16 16 16 16 16 16 16 16 16 16 16 16 16 16 16 16 16 16 16 17 16 16 16 16 16 16 16
Wind_Speed
8 13 20 19 19 19 19 19 20 20 20 20 20 19 18 18 17 16 15 14 14 14 14 15 15 15 15 15 16 16 16 16 16 17 17 17 18 18 18 18 18 17 19
14 17 22 20 20 19 19 19 19 19 19 19 19 18 17 17 16 15 15 14 14 14 15 15 16 16 16 16 16 16 16 16 16 16 17 17 18 17 17 17 16 16 18
17 18 21 21 20 20 19 19 19 19 19 18 18 17 17 16 16 15 15 14 14 15 15 15 15 16 16 16 16 15 15 15 16 16 16 14 15 16 16 17 17 17 17
17 18 20 22 21 20 19 19 18 18 18 18 17 17 16 16 15 15 14 14 14 14 15 15 15 15 15 15 15 15 15 15 16 16 12 12 13 15 16 16 16 16 16
15 17 20 23 21 20 19 18 18 18 17 17 16 16 15 15 15 14 14 14 14 14 15 15 15 15 14 14 14 14 14 15 15 13 12 11 12 15 15 15 15 15 15
14 17 21 23 22 20 19 18 18 17 17 16 16 15 15 15 14 14 14 14 14 14 14 14 14 13 13 13 12 12 13 14 13 12 11 11 12 14 14 14 14 15 14
14 15 20 23 22 20 19 18 18 17 16 16 15 15 14 14 13 13 13 13 13 13 13 13 12 12 11 11 10 11 12 13 12 11 10 10 12 13 13 13 13 14 14
16 14 19 23 22 21 20 19 18 17 16 15 15 15 14 13 13 13 13 12 12 12 12 11 11 11 10 9 10 10 13 12 11 10 9 9 12 13 13 13 13 13 13
13 12 13 19 20 21 20 19 18 17 16 15 14 14 13 13 12 12 12 12 11 11 10 10 10 10 9 9 9 10 11 12 10 9 9 8 11 12 12 12 12 13 12
12 11 10 13 15 16 17 19 18 17 16 15 14 14 13 12 12 11 10 10 10 10 9 9 9 8 8 8 8 9 10 11 9 8 7 8 11 11 11 11 11 12 12
13 10 9 10 12 13 14 17 17 17 16 15 14 14 12 10 10 9 9 9 9 9 8 8 8 7 7 7 7 9 10 9 9 7 7 9 10 10 10 10 10 11 11
16 13 10 10 10 12 13 13 12 12 13 12 11 11 10 9 8 7 8 8 8 7 7 6 7 7 7 6 6 8 8 8 7 7 7 9 10 10 10 9 10 10 10
16 15 12 10 9 9 7 10 9 9 10 10 10 11 10 8 7 5 4 4 5 6 5 5 6 5 5 5 5 6 7 7 6 6 7 8 9 9 9 9 9 9 9
15 14 13 11 9 8 8 8 8 7 8 7 9 11 9 6 4 4 3 3 4 4 4 4 4 4 4 4 5 6 6 6 6 6 7 8 8 8 9 9 9 9 9
15 15 14 12 11 8 7 7 7 6 7 8 9 10 9 6 4 3 3 3 3 3 3 3 3 3 3 3 4 5 5 6 6 6 6 8 8 8 8 8 8 8 8
15 15 14 13 11 9 7 6 6 7 8 8 8 9 9 8 6 4 3 3 3 3 3 3 3 3 2 2 2 4 4 5 6 6 5 6 7 8 8 8 8 8 8
13 13 14 13 11 11 9 7 7 8 9 7 8 9 10 9 8 6 4 3 3 4 4 5 4 4 3 2 2 3 3 3 4 5 4 4 5 6 7 7 7 8 8
13 13 13 13 12 11 9 7 7 8 9 7 8 9 10 10 9 7 4 3 4 5 5 3 3 3 2 2 2 1 2 2 3 3 3 4 4 5 6 6 7 7 7
13 14 14 11 12 11 10 7 7 7 7 7 8 8 9 10 10 8 5 5 6 5 3 3 2 2 2 2 2 2 1 1 1 2 3 4 4 4 5 5 6 7 7
12 13 13 11 10 9 8 6 5 5 5 6 7 8 10 10 11 9 6 6 6 4 3 3 3 3 2 3 3 3 2 1 0 1 2 3 4 5 5 5 5 6 7
12 12 13 13 11 10 7 8 7 6 5 5 5 8 10 11 11 9 5 5 5 4 4 4 3 4 2 2 3 3 3 2 1 1 1 2 3 4 5 5 5 5 5
13 13 12 12 12 10 8 7 5 5 4 5 4 7 10 11 11 10 7 5 5 4 4 4 3 3 2 2 3 3 1 2 2 1 1 2 3 3 4 5 6 6 6
12 14 13 12 11 10 8 5 5 4 3 3 4 5 7 10 11 10 9 7 6 5 5 4 4 5 3 1 1 3 3 3 1 2 1 1 2 2 3 4 6 7 7
10 10 11 11 10 10 9 9 10 8 6 6 6 5 5 8 10 10 10 8 6 5 5 5 4 3 5 3 1 1 1 3 2 0 2 2 2 3 3 4 5 6 7
8 8 9 10 10 10 10 10 10 7 5 5 5 6 6 5 7 9 9 8 6 5 5 5 4 4 3 4 3 2 2 2 1 2 1 2 2 2 3 3 4 5 7
7 7 8 10 9 10 10 10 10 10 8 8 8 7 6 4 4 6 8 7 7 5 6 5 5 5 4 4 3 3 3 3 2 2 2 2 2 2 2 3 4 6 7
Wind_Direction
155 154 148 142 134 128 124 121 119 119 119 120 121 122 122 122 121 118 116 114 112 109 106 106 107 108 110 112 112 112 111 113 112 111 111 111 110 110 109 107 106 107 109
147 152 149 145 139 133 129 126 124 123 123 123 123 123 123 122 122 120 118 116 114 112 109 108 107 108 109 109 110 111 113 114 113 111 109 110 110 110 109 109 109 111 110
144 150 150 147 142 138 133 130 129 127 127 127 126 125 124 124 123 122 121 119 116 114 112 109 108 108 108 110 110 111 111 111 110 107 104 103 109 112 112 112 113 112 111
145 148 150 149 146 142 138 135 133 132 131 130 129 127 126 125 124 122 121 119 117 116 114 112 110 110 110 110 110 112 111 110 108 106 101 105 111 115 113 113 114 114 113
144 147 153 151 148 145 142 139 137 136 135 134 132 130 129 127 126 125 123 121 120 118 116 114 113 112 113 113 113 113 113 112 110 105 100 101 110 117 116 115 115 115 114
144 148 156 153 152 149 147 144 141 140 139 137 135 133 131 129 128 127 125 122 121 119 117 115 115 115 116 116 115 117 118 115 110 108 105 108 114 118 118 118 117 116 115
146 150 157 156 155 153 151 148 146 145 143 141 139 136 134 133 131 129 126 123 121 119 117 117 116 116 117 116 115 117 123 121 116 113 113 116 120 120 120 120 118 117 116
150 151 157 158 158 156 155 153 152 150 148 146 143 140 138 136 134 131 129 126 123 121 118 116 116 116 114 112 113 119 127 128 125 121 119 122 125 124 123 122 121 120 118
148 150 154 159 160 160 160 158 156 154 152 150 146 143 142 140 137 133 132 130 127 123 120 116 114 113 113 112 117 126 132 132 127 127 130 129 131 129 127 126 125 123 122
150 152 151 153 156 159 162 161 159 157 156 153 149 148 147 145 141 138 135 133 130 127 122 116 112 111 114 115 119 128 132 128 128 128 131 141 139 136 134 133 131 128 127
159 156 151 149 151 154 158 165 162 160 159 155 154 153 146 137 136 135 141 141 136 132 124 117 112 109 108 113 119 123 125 128 135 135 142 150 148 143 140 139 137 134 133
167 163 157 155 153 155 163 160 156 155 155 152 151 144 137 135 136 139 153 148 142 135 125 117 113 106 103 104 112 117 127 136 140 145 154 158 157 152 148 145 143 141 139
167 166 163 160 159 157 152 149 147 145 146 147 146 142 139 135 134 134 136 124 118 116 101 96 93 97 109 117 119 123 138 141 143 153 163 167 165 159 155 153 150 148 147
167 170 166 165 162 155 147 148 144 144 146 147 149 148 144 138 134 139 131 112 99 101 97 92 93 102 108 121 137 140 144 148 150 155 167 174 173 168 163 161 160 159 157
172 173 172 167 164 154 145 150 152 151 156 155 154 159 159 154 154 152 146 137 127 118 110 107 103 103 104 121 145 155 157 156 156 157 170 178 178 175 172 169 169 170 168
176 175 170 168 164 155 154 151 153 158 161 159 163 169 172 171 168 162 158 157 154 141 126 119 111 107 101 116 127 145 152 154 157 158 167 180 182 181 180 180 181 179 178
177 174 171 169 165 161 157 156 163 167 166 170 175 180 182 183 177 169 165 167 167 148 126 107 96 96 102 103 102 120 133 145 156 160 165 174 186 191 191 194 196 194 190
171 173 171 175 170 168 163 160 166 173 170 173 177 183 187 189 182 171 167 173 164 143 129 115 104 97 93 98 97 96 114 142 164 169 173 181 187 195 201 204 205 206 205
166 166 168 176 174 175 168 166 165 165 167 171 177 183 186 188 184 176 172 168 158 139 133 136 105 114 124 118 111 69 55 85 170 185 196 201 201 202 208 217 213 214 217
165 169 171 175 175 171 161 157 152 151 164 171 179 184 181 180 180 175 167 162 154 138 134 126 116 93 105 116 102 69 35 19 29 227 230 216 212 211 212 218 220 225 229
166 173 176 174 174 170 171 173 173 180 177 174 182 182 179 176 174 169 164 159 158 156 158 143 120 106 95 101 91 57 23 24 18 301 267 234 228 223 216 217 219 226 235
175 179 181 179 176 179 182 177 170 165 174 178 174 179 180 175 172 174 166 166 161 149 145 146 131 120 107 116 123 108 48 356 349 344 296 241 244 235 227 225 221 223 230
182 186 186 184 179 180 173 157 144 132 129 153 169 177 181 177 176 176 174 166 163 161 165 165 151 143 143 117 122 142 149 209 289 329 317 272 254 236 240 238 230 229 230
189 184 182 181 180 178 172 173 169 175 179 184 177 176 174 177 179 179 175 170 167 166 167 174 166 150 142 147 128 88 128 147 153 267 321 312 281 244 242 243 240 236 233
180 180 179 177 180 180 179 180 178 179 176 160 157 160 171 176 180 179 174 170 170 170 172 168 161 155 149 155 157 145 120 88 109 148 239 305 309 273 254 246 244 240 236
172 176 175 177 183 182 182 183 183 178 167 161 164 169 173 171 177 178 175 173 172 171 172 174 170 165 162 154 155 157 156 158 177 165 189 237 268 294 281 253 242 241 240
Height
1509 1513 1516 1519 1522 1524 1525 1527 1529 1530 1532 1533 1535 1536 1538 1539 1540 1541 1542 1543 1544 1544 1545 1546 1547 1547 1548 1549 1550 1551 1552 1553 1553 1554 1555 1556 1557 1559 1560 1561 1562 1563 1564
1507 1513 1517 1520 1523 1525 1527 1529 1530 1532 1533 1535 1537 1538 1539 1541 1542 1543 1544 1545 1545 1546 1547 1548 1548 1549 1550 1551 1552 1553 1554 1555 1556 1557 1558 1559 1560 1561 1562 1563 1564 1566 1567
1508 1513 1517 1521 1523 1526 1528 1530 1532 1533 1535 1537 1538 1540 1541 1543 1544 1545 1546 1547 1547 1548 1549 1550 1551 1551 1552 1553 1554 1555 1556 1558 1558 1559 1560 1561 1563 1564 1565 1566 1567 1568 1570
1509 1513 1518 1521 1524 1527 1529 1531 1533 1535 1537 1538 1540 1542 1543 1544 1545 1546 1547 1548 1549 1550 1551 1552 1553 1554 1555 1556 1557 1558 1559 1560 1561 1562 1563 1564 1565 1566 1567 1569 1570 1571 1572
1511 1515 1519 1522 1526 1528 1531 1533 1535 1537 1538 1540 1542 1543 1545 1546 1547 1548 1549 1550 1551 1552 1553 1554 1555 1556 1557 1558 1559 1560 1562 1562 1563 1564 1565 1566 1567 1569 1570 1571 1572 1573 1575
1512 1516 1520 1523 1526 1529 1532 1534 1536 1538 1540 1542 1543 1545 1547 1548 1549 1550 1551 1552 1553 1554 1555 1556 1557 1558 1560 1561 1562 1563 1564 1565 1566 1567 1568 1569 1570 1571 1572 1574 1575 1576 1577
1512 1517 1520 1524 1527 1530 1533 1535 1537 1540 1541 1543 1545 1547 1548 1550 1551 1552 1553 1554 1555 1556 1558 1559 1560 1561 1562 1563 1564 1566 1566 1567 1568 1569 1570 1571 1572 1573 1574 1576 1577 1578 1579
1513 1517 1521 1524 1528 1530 1533 1536 1538 1540 1543 1545 1546 1548 1550 1551 1553 1554 1555 1556 1557 1558 1560 1561 1562 1563 1564 1565 1567 1568 1569 1569 1570 1571 1573 1574 1575 1576 1577 1578 1579 1580 1581
1515 1518 1521 1524 1528 1531 1534 1536 1539 1541 1543 1546 1548 1550 1551 1553 1554 1555 1556 1558 1559 1560 1561 1563 1564 1565 1566 1568 1569 1570 1571 1572 1572 1573 1574 1576 1577 1578 1579 1580 1581 1582 1583
1515 1518 1521 1525 1528 1531 1534 1537 1539 1542 1544 1547 1549 1550 1552 1554 1555 1557 1558 1559 1560 1562 1563 1564 1565 1567 1568 1570 1571 1572 1573 1573 1574 1575 1576 1577 1578 1580 1581 1582 1583 1584 1585
1514 1518 1521 1524 1528 1531 1534 1538 1540 1543 1545 1547 1549 1551 1553 1555 1557 1558 1559 1561 1562 1563 1565 1566 1567 1568 1570 1571 1572 1573 1574 1575 1576 1577 1578 1579 1580 1581 1582 1584 1585 1586 1587
1511 1516 1520 1524 1527 1531 1534 1537 1540 1543 1545 1548 1550 1552 1554 1556 1557 1559 1561 1562 1563 1565 1566 1567 1568 1570 1571 1572 1573 1574 1575 1576 1577 1578 1579 1580 1581 1582 1584 1585 1586 1587 1588
1510 1515 1519 1524 1527 1530 1534 1537 1540 1543 1546 1548 1550 1552 1554 1556 1558 1560 1561 1563 1564 1566 1567 1568 1570 1571 1572 1573 1575 1576 1577 1578 1578 1579 1580 1581 1582 1584 1585 1586 1587 1588 1589
1509 1514 1518 1523 1526 1530 1534 1537 1540 1543 1546 1548 1550 1553 1555 1557 1559 1560 1562 1564 1565 1567 1568 1569 1571 1572 1573 1575 1576 1577 1578 1579 1579 1580 1581 1582 1583 1584 1585 1587 1588 1589 1590
1507 1512 1517 1521 1525 1529 1533 1536 1540 1543 1546 1548 1551 1553 1556 1558 1560 1561 1563 1565 1566 1568 1569 1570 1572 1573 1574 1576 1577 1578 1579 1579 1580 1581 1582 1582 1583 1585 1586 1587 1588 1589 1591
1505 1510 1514 1519 1524 1528 1532 1535 1539 1542 1545 1548 1551 1553 1556 1559 1560 1562 1564 1566 1567 1568 1570 1571 1572 1574 1575 1576 1577 1578 1579 1580 1581 1582 1582 1583 1584 1585 1586 1588 1589 1590 1591
1505 1508 1512 1517 1522 1526 1530 1535 1538 1542 1545 1548 1551 1554 1556 1559 1561 1563 1564 1566 1568 1569 1570 1572 1573 1574 1575 1577 1578 1579 1579 1580 1581 1582 1583 1584 1584 1585 1586 1587 1588 1590 1591
1503 1507 1511 1516 1520 1524 1528 1533 1537 1541 1544 1547 1551 1553 1556 1558 1561 1563 1565 1566 1568 1569 1571 1572 1573 1575 1576 1577 1578 1579 1580 1581 1581 1582 1583 1584 1584 1585 1586 1587 1588 1589 1590
1501 1505 1509 1514 1518 1522 1527 1531 1536 1540 1543 1546 1550 1553 1555 1558 1560 1562 1564 1566 1568 1569 1571 1572 1573 1575 1576 1577 1578 1579 1580 1581 1582 1582 1583 1584 1584 1585 1586 1587 1588 1589 1589
1501 1505 1508 1512 1517 1521 1525 1530 1534 1538 1541 1545 1548 1551 1554 1557 1559 1562 1564 1566 1567 1569 1570 1572 1573 1574 1576 1577 1578 1579 1580 1581 1582 1582 1583 1584 1584 1585 1585 1586 1587 1588 1589
1499 1503 1506 1510 1514 1518 1522 1526 1530 1534 1539 1543 1546 1550 1553 1556 1558 1561 1563 1565 1566 1568 1570 1571 1573 1574 1575 1577 1578 1579 1580 1581 1581 1582 1583 1583 1584 1584 1585 1586 1586 1587 1588
1496 1500 1503 1507 1511 1515 1520 1524 1529 1533 1537 1541 1544 1548 1552 1555 1557 1559 1561 1564 1566 1567 1569 1570 1572 1573 1575 1576 1577 1578 1579 1581 1580 1581 1582 1582 1583 1584 1585 1585 1586 1586 1587
1495 1498 1501 1505 1509 1514 1518 1523 1527 1531 1535 1538 1542 1546 1550 1553 1556 1558 1560 1563 1564 1566 1568 1570 1571 1572 1574 1575 1577 1578 1579 1579 1580 1581 1581 1582 1582 1583 1584 1584 1585 1585 1586
1493 1496 1499 1503 1507 1512 1516 1520 1523 1527 1530 1534 1539 1543 1547 1551 1554 1557 1559 1561 1563 1565 1567 1568 1570 1571 1573 1574 1575 1577 1578 1578 1579 1580 1581 1581 1581 1582 1583 1583 1584 1584 1585
1491 1494 1497 1502 1505 1509 1513 1517 1521 1525 1529 1533 1538 1542 1546 1549 1552 1555 1558 1560 1562 1563 1565 1567 1568 1570 1571 1572 1574 1575 1577 1578 1578 1579 1579 1580 1581 1581 1581 1582 1582 1583 1583
1491 1493 1495 1499 1503 1507 1511 1515 1518 1523 1527 1531 1535 1539 1543 1547 1550 1553 1555 1558 1560 1562 1564 1565 1567 1568 1569 1571 1572 1574 1575 1576 1577 1578 1578 1579 1579 1580 1580 1581 1581 1582 1582